Location: Elstree
(51.6403°N, 0.2969°W)
Time: 12:58:58
(UTC+00:00)

USA 234 - Pass Details

Date: 03 March 2021
Orbit: 1102 x 1105 km, 123.0° (Epoch: 13 April)

Event Time Altitude Azimuth Distance (km) Brightness Sun altitude
Exits shadow 19:39:57 25° 76° (ENE) 2,082 4.2 -18.5°
Maximum altitude 19:43:38 48° 138° (SE) 1,407 3.5 -19.0°
Drops below altitude 10° 19:49:55 10° 212° (SSW) 2,956 5.7 -20.0°
Sets 19:52:30 0° 218° (SW) 3,911 6.4 -20.4°
